Starlink 3189

operational
NORAD ID: 51464 Int'l Des: 2022-010 Owner: SPXS Country: US Constellation: starlink
LEOCIRCULAR

Über Starlink 3189

Beschreibung wird geladen...

Live-Position

3D-Globus wird geladen...

Nächste Überflüge

Höhenverlauf

Altitude vs Time

uPlot chart will show altitude changes over time

Zweizeiliger Elementsatz

1 51464U 22010J 25304.78943103 -.00000293 00000-0 -33092-6 0 9993
2 51464 53.2156 137.7772 0001438 87.3799 272.7358 15.08836210207868
Epoch: 31. Okt. 2025 • Age: 22 hours

Aktueller Status

Höhe 559.1 km
Geschwindigkeit 7.58 km/s
Subsatellitenpunkt -52.82°S, 99.48°E
Startdatum 3. Feb. 2022
Alter 3.7 years
Typ internet

Technische Details

Klassifizierung Payload
Masse 297.00 kg
Trockenmasse 275.00 kg
Gesamtmasse 297.00 kg
Länge 0.20 m
Durchmesser 2.80 m
Spannweite 9.00 m
Form Box + pan
Hersteller SPXS
Bus-Typ Starlink
Phasenstatus In Orbit
Besitzer/Staat SPXS/US

Große Konstellationen

Loading constellations...